Regional Weather Roundup
Issued by NWS Albany, NY

Home | Current Version | Previous Version | Graphics & Text | Print | Product List | Glossary On
Versions: 1 2 3 4 5 6 7 8 9 10 11 12 13 14 15 16 17 18 19 20 21 22 23 24 25 26 27 28 29 30 31 32 33 34 35 36 37 38 39 40 41 42 43 44 45 46 47 48 49 50
695
ASUS41 KALY 220110
RWRALY

NEW YORK STATE HOURLY WEATHER ROUNDUP
NATIONAL WEATHER SERVICE ALBANY NY
900 PM EDT WED JUN 21 2017

NOTE: "FAIR" INDICATES FEW OR NO CLOUDS BELOW 12,000 FEET WITH NO
SIGNIFICANT WEATHER AND/OR NO OBSTRUCTIONS TO VISIBILITY.

NYZ032-033-038>043-046>054-057>066-NYZ062>081-082-084-220200-
EAST


CITY           SKY/WX    TMP DP  RH WIND       PRES   REMARKS
ALBANY         PTCLDY    69  51  52 NW9       29.92R
GLENS FALLS    NOT AVBL
POUGHKEEPSIE   CLEAR     70  60  70 CALM      29.89R
NEWBURGH       PTCLDY    72  57  60 VRB5      29.92R
MONTGOMERY     CLEAR     67  60  78 CALM      29.91R
WHITE PLAINS   PTCLDY    73  61  64 W3        29.90R
ISLIP          PTCLDY    69  64  84 SW7       29.90R
NEW YORK CITY  PTCLDY    83  57  41 W12G21    29.89R
CENTRAL PARK   CLEAR     77  58  51 VRB6      29.93R
$$

NYZ005>009-017-018-044>046-055-056-220200-
CENTRAL


CITY           SKY/WX    TMP DP  RH WIND       PRES   REMARKS
FULTON         CLEAR     62  53  72 W3        29.94S
SYRACUSE       PTCLDY    65  51  60 W8        29.94S
ROME           CLEAR     65  50  58 W5        29.94S
ELMIRA         CLEAR     64  55  72 NW5       29.96R
BINGHAMTON     CLEAR     64  52  63 NW3       29.97R
MONTICELLO     CLEAR     66  52  59 NW3       29.97R
$$

NYZ026>034-041>043-087-220200-
NORTH


CITY           SKY/WX    TMP DP  RH WIND       PRES   REMARKS
WATERTOWN      CLEAR     63  57  81 SW9       29.92S
FORT DRUM      NOT AVBL
OGDENSBURG     MOCLDY    62  60  93 S6        29.90R
MASSENA        CLEAR     63  60  90 SW7       29.89R
SARANAC LAKE   MOCLDY    57  57 100 CALM      29.92R
PLATTSBURGH    CLOUDY    68  53  58 VRB3      29.87R
$$

NYZ001>004-010>016-019>021-085-220200-
WEST


CITY           SKY/WX    TMP DP  RH WIND       PRES   REMARKS
NIAGARA FALLS  CLEAR     68  53  58 SW10      29.97R
BUFFALO        PTCLDY    66  54  65 SW9       29.98R
DUNKIRK        CLEAR     63  56  78 SW6       29.99S
JAMESTOWN      CLEAR     63  48  59 NW3       30.01S
WELLSVILLE     CLEAR     60  48  64 NW7       30.03R
ROCHESTER      PTCLDY    70  54  56 W7        29.96R
PENN YAN       CLEAR     67  54  63 W3        29.97S
$$

             KEY
       WCI = WIND CHILL INDEX
       VSB = VISIBILITY
       HX  = HEAT INDEX
$$




USA.gov is the U.S. government's official web portal to all federal, state and local government web resources and services.